station,datetime,latitude [degrees_east],longitude [degrees_west],elevation [m],relative_humidity [%],temperature_2m [degC],temperature_9m [degC],solar_insolation [watt/m**2],station_pressure [mbar],wind_speed [m/s],wind_maximum [m/s],wind_direction [degrees],precip_since_00Z [mm],soil_temperature_5cm [degC],soil_temperature_25cm [degC],soil_temperature_50cm [degC],soil_moisture_5cm [m**3/m**3],soil_moisture_25cm [m**3/m**3],soil_moisture_50cm [m**3/m**3]
WFMB,20170801T000000,44.39323,73.85883,614.6,91,18.0,18.4,25,946.71,1,6,279,0.32,23.8,20.3,18.2,0.2,0.2,0.3
WFMB,20170801T000500,44.39323,73.85883,614.6,90,17.7,18.1,23,946.86,1,3,250,0.0,23.7,20.3,18.2,0.2,0.2,0.3
WFMB,20170801T001000,44.39323,73.85883,614.6,89,17.5,18.1,14,946.78,1,3,277,0.0,23.7,20.3,18.2,0.2,0.2,0.3
WFMB,20170801T001500,44.39323,73.85883,614.6,90,17.6,18.1,6,946.76,1,3,300,0.0,23.7,20.3,18.2,0.2,0.2,0.3
WFMB,20170801T002000,44.39323,73.85883,614.6,91,17.7,18.1,4,946.75,1,3,292,0.0,23.7,20.3,18.2,0.2,0.2,0.3
WFMB,20170801T002500,44.39323,73.85883,614.6,89,17.8,18.2,3,946.72,1,3,298,0.0,23.6,20.3,18.2,0.2,0.2,0.3
WFMB,20170801T003000,44.39323,73.85883,614.6,89,17.8,18.3,2,946.76,1,4,285,0.0,23.5,20.3,18.2,0.2,0.2,0.3
WFMB,20170801T003500,44.39323,73.85883,614.6,89,18.0,18.3,1,946.78,1,4,294,0.0,23.5,20.3,18.2,0.2,0.2,0.3
WFMB,20170801T004000,44.39323,73.85883,614.6,90,17.9,18.3,1,946.79,1,4,287,0.0,23.4,20.3,18.2,0.2,0.2,0.3
WFMB,20170801T004500,44.39323,73.85883,614.6,90,18.0,18.3,0,946.93,1,1,288,0.0,23.3,20.3,18.2,0.2,0.2,0.3
WFMB,20170801T005000,44.39323,73.85883,614.6,91,18.0,18.3,0,946.99,1,2,308,0.0,23.3,20.3,18.2,0.2,0.2,0.3
WFMB,20170801T005500,44.39323,73.85883,614.6,94,17.6,17.9,0,946.99,1,1,314,0.0,23.3,20.3,18.2,0.2,0.2,0.3
WFMB,20170801T010000,44.39323,73.85883,614.6,97,17.2,17.9,0,946.97,0,2,281,0.0,23.2,20.3,18.2,0.2,0.2,0.3
WFMB,20170801T010500,44.39323,73.85883,614.6,98,17.0,17.9,0,947.05,0,1,323,0.0,23.0,20.3,18.2,0.2,0.2,0.3
WFMB,20170801T011000,44.39323,73.85883,614.6,98,17.2,18.2,0,947.15,0,1,323,0.0,23.0,20.3,18.2,0.2,0.2,0.3
WFMB,20170801T011500,44.39323,73.85883,614.6,99,17.1,18.4,0,947.16,0,1,275,0.0,22.9,20.3,18.2,0.2,0.2,0.3
WFMB,20170801T012000,44.39323,73.85883,614.6,99,17.1,18.1,0,947.23,0,1,320,0.0,22.8,20.3,18.2,0.2,0.2,0.3
WFMB,20170801T012500,44.39323,73.85883,614.6,99,17.2,18.6,0,947.23,0,1,323,0.0,22.8,20.3,18.2,0.2,0.2,0.3
WFMB,20170801T013000,44.39323,73.85883,614.6,99,17.1,18.2,0,947.26,0,1,256,0.0,22.8,20.3,18.2,0.2,0.2,0.3
WFMB,20170801T013500,44.39323,73.85883,614.6,100,17.0,18.1,0,947.31,0,1,249,0.0,22.8,20.3,18.2,0.2,0.2,0.3
WFMB,20170801T014000,44.39323,73.85883,614.6,100,17.2,18.6,0,947.28,0,1,254,0.0,22.7,20.3,18.2,0.2,0.2,0.3
WFMB,20170801T014500,44.39323,73.85883,614.6,100,17.3,18.6,0,947.32,0,1,244,0.0,22.6,20.3,18.2,0.2,0.2,0.3
WFMB,20170801T015000,44.39323,73.85883,614.6,100,17.5,18.3,0,947.36,0,1,274,0.0,22.6,20.4,18.2,0.2,0.2,0.3
WFMB,20170801T015500,44.39323,73.85883,614.6,100,17.5,18.5,0,947.39,0,1,257,0.0,22.5,20.5,18.2,0.2,0.2,0.3
WFMB,20170801T020000,44.39323,73.85883,614.6,100,17.7,18.9,0,947.39,0,2,260,0.0,22.4,20.5,18.2,0.2,0.2,0.3
WFMB,20170801T020500,44.39323,73.85883,614.6,100,17.8,18.7,0,947.33,0,1,282,0.0,22.4,20.5,18.2,0.2,0.2,0.3
WFMB,20170801T021000,44.39323,73.85883,614.6,100,17.8,18.5,0,947.36,0,1,276,0.0,22.4,20.5,18.2,0.2,0.2,0.3
WFMB,20170801T021500,44.39323,73.85883,614.6,100,17.8,18.7,0,947.41,0,1,272,0.0,22.4,20.5,18.3,0.2,0.2,0.3
WFMB,20170801T022000,44.39323,73.85883,614.6,100,17.7,18.4,0,947.44,0,1,285,0.0,22.3,20.5,18.3,0.2,0.2,0.3
WFMB,20170801T022500,44.39323,73.85883,614.6,100,17.7,18.5,0,947.42,0,1,282,0.0,22.1,20.5,18.3,0.2,0.2,0.3
WFMB,20170801T023000,44.39323,73.85883,614.6,100,17.9,18.8,0,947.45,0,2,279,0.0,22.1,20.5,18.2,0.2,0.2,0.3
WFMB,20170801T023500,44.39323,73.85883,614.6,99,17.9,18.8,0,947.49,0,2,279,0.0,22.1,20.5,18.3,0.2,0.2,0.3
WFMB,20170801T024000,44.39323,73.85883,614.6,99,17.8,18.8,0,947.46,1,2,273,0.0,22.1,20.5,18.3,0.2,0.2,0.3
WFMB,20170801T024500,44.39323,73.85883,614.6,100,17.7,18.7,0,947.48,1,3,270,0.0,21.9,20.5,18.3,0.2,0.2,0.3
WFMB,20170801T025000,44.39323,73.85883,614.6,100,17.9,18.8,0,947.46,0,1,285,0.0,21.9,20.5,18.4,0.2,0.2,0.3
WFMB,20170801T025500,44.39323,73.85883,614.6,99,18.0,18.7,0,947.46,0,1,289,0.0,21.9,20.5,18.4,0.2,0.2,0.3
WFMB,20170801T030000,44.39323,73.85883,614.6,99,17.9,18.7,0,947.45,0,1,276,0.0,21.9,20.5,18.4,0.2,0.2,0.3
WFMB,20170801T030500,44.39323,73.85883,614.6,99,18.1,19.0,0,947.42,1,1,275,0.0,21.9,20.5,18.4,0.2,0.2,0.3
WFMB,20170801T031000,44.39323,73.85883,614.6,100,18.0,18.9,0,947.38,1,2,281,0.0,21.9,20.5,18.4,0.2,0.2,0.3
WFMB,20170801T031500,44.39323,73.85883,614.6,99,18.1,18.9,0,947.27,1,1,272,0.0,21.7,20.5,18.4,0.2,0.2,0.3
WFMB,20170801T032000,44.39323,73.85883,614.6,99,18.1,18.9,0,947.27,1,2,277,0.0,21.7,20.5,18.4,0.2,0.2,0.3
WFMB,20170801T032500,44.39323,73.85883,614.6,98,18.4,18.9,0,947.3,1,1,278,0.0,21.7,20.5,18.4,0.2,0.2,0.3
WFMB,20170801T033000,44.39323,73.85883,614.6,97,18.3,18.7,0,947.2,1,1,285,0.0,21.7,20.5,18.4,0.2,0.2,0.3
WFMB,20170801T033500,44.39323,73.85883,614.6,96,18.3,18.6,0,947.23,1,2,282,0.0,21.6,20.5,18.4,0.2,0.2,0.3
WFMB,20170801T034000,44.39323,73.85883,614.6,96,18.4,18.7,0,947.29,1,1,287,0.0,21.5,20.5,18.4,0.2,0.2,0.3
WFMB,20170801T034500,44.39323,73.85883,614.6,96,18.3,18.7,0,947.39,1,3,285,0.0,21.5,20.5,18.4,0.2,0.2,0.3
WFMB,20170801T035000,44.39323,73.85883,614.6,96,18.3,18.8,0,947.39,1,2,279,0.0,21.5,20.5,18.4,0.2,0.2,0.3
WFMB,20170801T035500,44.39323,73.85883,614.6,96,18.2,18.7,0,947.37,1,2,279,0.0,21.5,20.5,18.4,0.2,0.2,0.3
WFMB,20170801T040000,44.39323,73.85883,614.6,97,18.2,18.8,0,947.36,1,2,278,0.0,21.5,20.5,18.4,0.2,0.2,0.3
WFMB,20170801T040500,44.39323,73.85883,614.6,97,18.3,18.8,0,947.37,1,2,276,0.0,21.3,20.5,18.4,0.2,0.2,0.3
WFMB,20170801T041000,44.39323,73.85883,614.6,97,18.3,18.7,0,947.33,1,2,284,0.0,21.3,20.5,18.4,0.2,0.2,0.3
WFMB,20170801T041500,44.39323,73.85883,614.6,97,18.2,18.6,0,947.35,1,2,283,0.0,21.3,20.5,18.4,0.2,0.2,0.3
WFMB,20170801T042000,44.39323,73.85883,614.6,97,18.2,18.6,0,947.36,1,2,285,0.0,21.3,20.5,18.4,0.2,0.2,0.3
WFMB,20170801T042500,44.39323,73.85883,614.6,97,18.1,18.7,0,947.36,1,1,280,0.0,21.2,20.5,18.4,0.2,0.2,0.3
WFMB,20170801T043000,44.39323,73.85883,614.6,97,18.2,18.7,0,947.4,1,2,281,0.0,21.1,20.5,18.4,0.2,0.2,0.3
WFMB,20170801T043500,44.39323,73.85883,614.6,96,18.1,18.7,0,947.37,1,1,287,0.0,21.1,20.5,18.4,0.2,0.2,0.3
WFMB,20170801T044000,44.39323,73.85883,614.6,97,18.0,18.7,0,947.44,0,1,284,0.0,21.1,20.5,18.4,0.2,0.2,0.3
WFMB,20170801T044500,44.39323,73.85883,614.6,97,18.0,18.9,0,947.42,1,1,277,0.0,21.1,20.5,18.4,0.2,0.2,0.3
WFMB,20170801T045000,44.39323,73.85883,614.6,98,17.9,18.7,0,947.34,1,2,271,0.0,21.1,20.5,18.4,0.2,0.2,0.3
WFMB,20170801T045500,44.39323,73.85883,614.6,98,17.8,18.4,0,947.26,1,1,271,0.0,21.1,20.5,18.4,0.2,0.2,0.3
WFMB,20170801T050000,44.39323,73.85883,614.6,98,17.8,18.5,0,947.22,1,2,268,0.0,21.0,20.5,18.4,0.2,0.2,0.3
WFMB,20170801T050500,44.39323,73.85883,614.6,98,17.7,18.4,0,947.23,1,2,267,0.0,20.9,20.5,18.4,0.2,0.2,0.3
WFMB,20170801T051000,44.39323,73.85883,614.6,97,17.8,18.5,0,947.21,1,2,259,0.0,20.9,20.5,18.4,0.2,0.2,0.3
WFMB,20170801T051500,44.39323,73.85883,614.6,98,17.6,18.4,0,947.29,1,1,259,0.0,20.9,20.5,18.4,0.2,0.2,0.3
WFMB,20170801T052000,44.39323,73.85883,614.6,97,17.6,18.5,0,947.29,1,2,258,0.0,20.9,20.5,18.4,0.2,0.2,0.3
WFMB,20170801T052500,44.39323,73.85883,614.6,97,17.6,18.5,0,947.32,1,2,265,0.0,20.9,20.5,18.4,0.2,0.2,0.3
WFMB,20170801T053000,44.39323,73.85883,614.6,97,17.7,18.5,0,947.37,1,1,264,0.0,20.9,20.5,18.4,0.2,0.2,0.3
WFMB,20170801T053500,44.39323,73.85883,614.6,97,17.7,18.5,0,947.44,1,2,270,0.0,20.7,20.5,18.4,0.2,0.2,0.3
WFMB,20170801T054000,44.39323,73.85883,614.6,97,17.7,18.4,0,947.39,1,4,254,0.0,20.7,20.5,18.4,0.2,0.2,0.3
WFMB,20170801T054500,44.39323,73.85883,614.6,96,17.7,18.3,0,947.38,1,1,263,0.0,20.7,20.5,18.4,0.2,0.2,0.3
WFMB,20170801T055000,44.39323,73.85883,614.6,97,17.4,18.1,0,947.38,1,2,251,0.0,20.7,20.5,18.4,0.2,0.2,0.3
WFMB,20170801T055500,44.39323,73.85883,614.6,97,17.4,18.2,0,947.34,1,2,258,0.0,20.7,20.5,18.4,0.2,0.2,0.3
WFMB,20170801T060000,44.39323,73.85883,614.6,97,17.4,18.1,0,947.36,1,2,258,0.0,20.7,20.5,18.4,0.2,0.2,0.3
WFMB,20170801T060500,44.39323,73.85883,614.6,97,17.4,18.1,0,947.36,1,2,256,0.0,20.7,20.5,18.4,0.2,0.2,0.3
WFMB,20170801T061000,44.39323,73.85883,614.6,97,17.3,18.0,0,947.33,1,2,260,0.0,20.7,20.5,18.4,0.2,0.2,0.3
WFMB,20170801T061500,44.39323,73.85883,614.6,97,17.2,17.9,0,947.28,1,2,258,0.0,20.5,20.5,18.4,0.2,0.2,0.3
WFMB,20170801T062000,44.39323,73.85883,614.6,97,17.1,17.9,0,947.24,1,2,248,0.0,20.5,20.5,18.4,0.2,0.2,0.3
WFMB,20170801T062500,44.39323,73.85883,614.6,96,17.1,17.8,0,947.24,1,3,244,0.0,20.5,20.4,18.4,0.2,0.2,0.3
WFMB,20170801T063000,44.39323,73.85883,614.6,96,17.2,17.6,0,947.3,0,1,290,0.0,20.5,20.4,18.4,0.2,0.2,0.3
WFMB,20170801T063500,44.39323,73.85883,614.6,96,17.0,17.5,0,947.31,1,1,267,0.0,20.5,20.3,18.4,0.2,0.2,0.3
WFMB,20170801T064000,44.39323,73.85883,614.6,96,16.8,17.5,0,947.33,1,3,252,0.0,20.5,20.3,18.4,0.2,0.2,0.3
WFMB,20170801T064500,44.39323,73.85883,614.6,95,16.8,17.5,0,947.31,1,2,253,0.0,20.4,20.3,18.4,0.2,0.2,0.3
WFMB,20170801T065000,44.39323,73.85883,614.6,94,16.8,17.4,0,947.35,1,1,262,0.0,20.3,20.3,18.4,0.2,0.2,0.3
WFMB,20170801T065500,44.39323,73.85883,614.6,93,16.6,17.4,0,947.48,1,3,286,0.0,20.3,20.3,18.4,0.2,0.2,0.3
WFMB,20170801T070000,44.39323,73.85883,614.6,94,16.6,17.3,0,947.43,0,1,281,0.0,20.3,20.3,18.4,0.2,0.2,0.3
WFMB,20170801T070500,44.39323,73.85883,614.6,94,16.3,16.6,0,947.4,0,1,278,0.0,20.3,20.3,18.4,0.2,0.2,0.3
WFMB,20170801T071000,44.39323,73.85883,614.6,94,16.3,16.5,0,947.39,0,1,286,0.0,20.3,20.3,18.4,0.2,0.2,0.3
WFMB,20170801T071500,44.39323,73.85883,614.6,94,16.3,16.4,0,947.43,0,1,308,0.0,20.3,20.3,18.4,0.2,0.2,0.3
WFMB,20170801T072000,44.39323,73.85883,614.6,94,16.2,16.3,0,947.4,0,1,302,0.0,20.3,20.3,18.4,0.2,0.2,0.3
WFMB,20170801T072500,44.39323,73.85883,614.6,95,16.1,16.3,0,947.37,1,1,285,0.0,20.2,20.3,18.4,0.2,0.2,0.3
WFMB,20170801T073000,44.39323,73.85883,614.6,94,16.0,16.2,0,947.36,1,1,280,0.0,20.1,20.3,18.4,0.2,0.2,0.3
WFMB,20170801T073500,44.39323,73.85883,614.6,94,16.0,16.1,0,947.38,1,1,284,0.0,20.1,20.3,18.4,0.2,0.2,0.3
WFMB,20170801T074000,44.39323,73.85883,614.6,94,15.9,15.9,0,947.39,1,1,293,0.0,20.1,20.3,18.4,0.2,0.2,0.3
WFMB,20170801T074500,44.39323,73.85883,614.6,94,15.7,16.1,0,947.33,1,1,266,0.0,20.1,20.3,18.4,0.2,0.2,0.3
WFMB,20170801T075000,44.39323,73.85883,614.6,94,15.9,16.2,0,947.32,1,1,252,0.0,20.0,20.3,18.4,0.2,0.2,0.3
WFMB,20170801T075500,44.39323,73.85883,614.6,93,16.0,16.3,0,947.3,1,1,253,0.0,19.9,20.3,18.4,0.2,0.2,0.3
WFMB,20170801T080000,44.39323,73.85883,614.6,92,16.0,16.5,0,947.26,1,1,258,0.0,19.9,20.3,18.4,0.2,0.2,0.3
WFMB,20170801T080500,44.39323,73.85883,614.6,89,15.7,16.1,0,947.29,1,1,259,0.0,19.9,20.3,18.4,0.2,0.2,0.3
WFMB,20170801T081000,44.39323,73.85883,614.6,90,15.6,16.3,0,947.24,0,1,291,0.0,19.9,20.3,18.4,0.2,0.2,0.3
WFMB,20170801T081500,44.39323,73.85883,614.6,91,15.4,15.9,0,947.19,1,2,288,0.0,19.9,20.3,18.4,0.2,0.2,0.3
WFMB,20170801T082000,44.39323,73.85883,614.6,91,15.5,16.5,0,947.18,1,1,255,0.0,19.9,20.3,18.4,0.2,0.2,0.3
WFMB,20170801T082500,44.39323,73.85883,614.6,90,15.7,16.0,0,947.22,0,1,296,0.0,19.8,20.3,18.4,0.2,0.2,0.3
WFMB,20170801T083000,44.39323,73.85883,614.6,89,15.3,15.8,0,947.25,1,1,294,0.0,19.7,20.3,18.4,0.2,0.2,0.3
WFMB,20170801T083500,44.39323,73.85883,614.6,87,15.2,15.6,0,947.25,1,1,269,0.0,19.7,20.3,18.5,0.2,0.2,0.3
WFMB,20170801T084000,44.39323,73.85883,614.6,86,15.2,15.5,0,947.27,1,1,269,0.0,19.7,20.3,18.5,0.2,0.2,0.3
WFMB,20170801T084500,44.39323,73.85883,614.6,83,15.2,15.7,0,947.28,1,1,275,0.0,19.7,20.3,18.5,0.2,0.2,0.3
WFMB,20170801T085000,44.39323,73.85883,614.6,82,15.2,15.9,0,947.25,1,1,265,0.0,19.6,20.3,18.5,0.2,0.2,0.3
WFMB,20170801T085500,44.39323,73.85883,614.6,81,15.1,15.8,0,947.23,1,1,258,0.0,19.5,20.3,18.5,0.2,0.2,0.3
WFMB,20170801T090000,44.39323,73.85883,614.6,82,15.1,15.5,0,947.21,1,1,258,0.0,19.5,20.3,18.5,0.2,0.2,0.3
WFMB,20170801T090500,44.39323,73.85883,614.6,84,15.0,15.4,0,947.24,1,1,258,0.0,19.5,20.3,18.5,0.2,0.2,0.3
WFMB,20170801T091000,44.39323,73.85883,614.6,86,15.0,15.3,0,947.26,1,1,258,0.0,19.5,20.3,18.5,0.2,0.2,0.3
WFMB,20170801T091500,44.39323,73.85883,614.6,87,15.0,15.1,0,947.27,1,1,260,0.0,19.5,20.3,18.5,0.2,0.2,0.3
WFMB,20170801T092000,44.39323,73.85883,614.6,85,14.7,15.2,0,947.29,1,1,265,0.0,19.5,20.3,18.6,0.2,0.2,0.3
WFMB,20170801T092500,44.39323,73.85883,614.6,85,14.8,14.9,1,947.36,1,1,260,0.0,19.4,20.3,18.6,0.2,0.2,0.3
WFMB,20170801T093000,44.39323,73.85883,614.6,86,14.8,15.0,1,947.4,1,1,259,0.0,19.3,20.3,18.6,0.2,0.2,0.3
WFMB,20170801T093500,44.39323,73.85883,614.6,85,14.8,15.0,1,947.43,1,1,262,0.0,19.3,20.3,18.6,0.2,0.2,0.3
WFMB,20170801T094000,44.39323,73.85883,614.6,84,14.7,15.2,2,947.47,1,1,270,0.0,19.3,20.3,18.6,0.2,0.2,0.3
WFMB,20170801T094500,44.39323,73.85883,614.6,85,14.8,15.4,3,947.48,1,1,278,0.0,19.3,20.3,18.6,0.2,0.2,0.3
WFMB,20170801T095000,44.39323,73.85883,614.6,83,15.0,16.1,7,947.44,0,1,266,0.0,19.3,20.3,18.6,0.2,0.2,0.3
WFMB,20170801T095500,44.39323,73.85883,614.6,82,14.9,15.7,11,947.45,1,1,264,0.0,19.2,20.3,18.6,0.2,0.2,0.3
WFMB,20170801T100000,44.39323,73.85883,614.6,83,14.8,15.4,14,947.43,1,1,273,0.0,19.1,20.3,18.6,0.2,0.2,0.3
WFMB,20170801T100500,44.39323,73.85883,614.6,83,15.0,15.6,17,947.43,1,1,271,0.0,19.1,20.3,18.6,0.2,0.2,0.3
WFMB,20170801T101000,44.39323,73.85883,614.6,84,15.2,16.2,21,947.48,1,1,271,0.0,19.1,20.3,18.6,0.2,0.2,0.3
WFMB,20170801T101500,44.39323,73.85883,614.6,83,15.3,15.8,24,947.51,1,1,274,0.0,19.1,20.3,18.6,0.2,0.2,0.3
WFMB,20170801T102000,44.39323,73.85883,614.6,84,15.5,17.0,27,947.58,0,1,268,0.0,19.1,20.2,18.6,0.2,0.2,0.3
WFMB,20170801T102500,44.39323,73.85883,614.6,83,15.6,16.6,30,947.65,0,1,285,0.0,19.1,20.2,18.6,0.2,0.2,0.3
WFMB,20170801T103000,44.39323,73.85883,614.6,83,15.8,16.5,34,947.69,0,1,298,0.0,19.1,20.1,18.6,0.2,0.2,0.3
WFMB,20170801T103500,44.39323,73.85883,614.6,83,16.1,16.7,40,947.71,0,1,275,0.0,19.0,20.1,18.6,0.2,0.2,0.3
WFMB,20170801T104000,44.39323,73.85883,614.6,84,16.3,17.3,40,947.77,0,1,311,0.0,18.9,20.1,18.6,0.2,0.2,0.3
WFMB,20170801T104500,44.39323,73.85883,614.6,84,16.4,17.9,44,947.82,0,1,315,0.0,18.9,20.1,18.6,0.2,0.2,0.3
WFMB,20170801T105000,44.39323,73.85883,614.6,84,16.6,17.8,49,947.83,0,1,334,0.0,18.9,20.1,18.6,0.2,0.2,0.3
WFMB,20170801T105500,44.39323,73.85883,614.6,85,16.7,17.7,53,947.85,0,1,323,0.0,18.9,20.1,18.6,0.2,0.2,0.3
WFMB,20170801T110000,44.39323,73.85883,614.6,86,16.9,17.7,53,947.87,1,1,321,0.0,18.9,20.1,18.6,0.2,0.2,0.3
WFMB,20170801T110500,44.39323,73.85883,614.6,87,17.1,17.8,109,947.94,0,0,332,0.0,18.9,20.1,18.6,0.2,0.2,0.3
WFMB,20170801T111000,44.39323,73.85883,614.6,87,17.1,18.1,159,947.98,0,1,323,0.0,18.9,20.1,18.6,0.2,0.2,0.3
WFMB,20170801T111500,44.39323,73.85883,614.6,85,17.4,18.5,195,947.97,0,1,340,0.0,18.9,20.1,18.6,0.2,0.2,0.3
WFMB,20170801T112000,44.39323,73.85883,614.6,82,17.6,18.5,212,947.98,0,1,2,0.0,18.9,20.1,18.6,0.2,0.2,0.3
WFMB,20170801T112500,44.39323,73.85883,614.6,79,18.2,18.7,228,947.99,0,1,181,0.0,18.9,20.1,18.6,0.2,0.2,0.3
WFMB,20170801T113000,44.39323,73.85883,614.6,76,18.4,18.9,245,947.99,0,1,72,0.0,18.8,20.1,18.6,0.2,0.2,0.3
WFMB,20170801T113500,44.39323,73.85883,614.6,79,18.3,18.8,262,947.99,0,1,167,0.0,18.8,20.1,18.6,0.2,0.2,0.3
WFMB,20170801T114000,44.39323,73.85883,614.6,72,18.7,19.1,279,948.0,1,1,95,0.0,18.8,20.1,18.6,0.2,0.2,0.3
WFMB,20170801T114500,44.39323,73.85883,614.6,66,19.0,19.3,295,948.02,1,2,128,0.0,18.8,20.1,18.6,0.2,0.2,0.3
WFMB,20170801T115000,44.39323,73.85883,614.6,67,19.2,19.3,310,948.09,1,2,103,0.0,18.8,20.1,18.6,0.2,0.2,0.3
WFMB,20170801T115500,44.39323,73.85883,614.6,67,19.4,19.4,328,948.11,1,2,108,0.0,18.8,20.1,18.6,0.2,0.2,0.3
WFMB,20170801T120000,44.39323,73.85883,614.6,68,19.5,19.5,344,948.15,2,2,118,0.0,18.9,20.1,18.6,0.2,0.2,0.3
WFMB,20170801T120500,44.39323,73.85883,614.6,67,19.7,19.6,361,948.21,1,2,100,0.0,18.9,20.0,18.6,0.2,0.2,0.3
WFMB,20170801T121000,44.39323,73.85883,614.6,67,19.8,20.0,375,948.2,0,1,176,0.0,18.9,20.0,18.6,0.2,0.2,0.3
WFMB,20170801T121500,44.39323,73.85883,614.6,67,20.0,20.2,392,948.16,1,1,130,0.0,18.9,19.9,18.6,0.2,0.2,0.3
WFMB,20170801T122000,44.39323,73.85883,614.6,69,19.9,20.2,408,948.19,1,2,359,0.0,18.9,19.9,18.6,0.2,0.2,0.3
WFMB,20170801T122500,44.39323,73.85883,614.6,65,20.3,20.4,423,948.22,1,2,33,0.0,18.9,19.9,18.6,0.2,0.2,0.3
WFMB,20170801T123000,44.39323,73.85883,614.6,64,20.6,20.5,441,948.23,0,2,316,0.0,19.1,19.9,18.6,0.2,0.2,0.3
WFMB,20170801T123500,44.39323,73.85883,614.6,62,20.7,20.8,457,948.21,1,2,356,0.0,19.1,19.9,18.6,0.2,0.2,0.3
WFMB,20170801T124000,44.39323,73.85883,614.6,60,20.8,20.6,472,948.23,1,2,6,0.0,19.1,19.9,18.6,0.2,0.2,0.3
WFMB,20170801T124500,44.39323,73.85883,614.6,64,21.0,21.0,488,948.2,1,2,171,0.0,19.3,19.9,18.6,0.2,0.2,0.3
WFMB,20170801T125000,44.39323,73.85883,614.6,62,21.3,21.1,503,948.24,1,2,26,0.0,19.3,19.9,18.6,0.2,0.2,0.3
WFMB,20170801T125500,44.39323,73.85883,614.6,58,20.9,20.8,519,948.23,1,3,38,0.0,19.5,19.9,18.6,0.2,0.2,0.3
WFMB,20170801T130000,44.39323,73.85883,614.6,60,21.1,21.0,535,948.18,1,2,62,0.0,19.5,19.9,18.6,0.2,0.2,0.3
WFMB,20170801T130500,44.39323,73.85883,614.6,59,21.4,21.2,551,948.17,1,1,143,0.0,19.7,19.9,18.6,0.2,0.2,0.3
WFMB,20170801T131000,44.39323,73.85883,614.6,57,21.4,21.1,566,948.15,1,2,105,0.0,19.7,19.9,18.6,0.2,0.2,0.3
WFMB,20170801T131500,44.39323,73.85883,614.6,57,21.2,21.1,581,948.14,1,2,82,0.0,19.9,19.9,18.6,0.2,0.2,0.3
WFMB,20170801T132000,44.39323,73.85883,614.6,54,21.4,21.2,598,948.16,1,3,358,0.0,19.9,19.9,18.6,0.2,0.2,0.3
WFMB,20170801T132500,44.39323,73.85883,614.6,54,21.6,21.2,614,948.06,1,4,5,0.0,20.0,19.9,18.6,0.2,0.2,0.3
WFMB,20170801T133000,44.39323,73.85883,614.6,51,21.7,21.4,628,948.0,1,4,2,0.0,20.1,19.9,18.6,0.2,0.2,0.3
WFMB,20170801T133500,44.39323,73.85883,614.6,53,22.0,21.7,641,947.97,1,3,348,0.0,20.3,19.9,18.6,0.2,0.2,0.3
WFMB,20170801T134000,44.39323,73.85883,614.6,56,22.0,21.6,655,948.01,1,2,54,0.0,20.3,19.9,18.6,0.2,0.2,0.3
WFMB,20170801T134500,44.39323,73.85883,614.6,51,22.0,21.5,669,948.01,1,3,38,0.0,20.4,19.9,18.6,0.2,0.2,0.3
WFMB,20170801T135000,44.39323,73.85883,614.6,53,21.8,21.6,680,948.06,1,2,86,0.0,20.5,19.9,18.6,0.2,0.2,0.3
WFMB,20170801T135500,44.39323,73.85883,614.6,52,22.2,21.8,692,948.12,1,4,337,0.0,20.6,19.9,18.6,0.2,0.2,0.3
WFMB,20170801T140000,44.39323,73.85883,614.6,51,22.2,21.8,705,948.1,1,2,330,0.0,20.7,19.9,18.6,0.2,0.2,0.3
WFMB,20170801T140500,44.39323,73.85883,614.6,49,22.1,21.7,718,948.09,1,3,104,0.0,20.7,19.9,18.6,0.2,0.2,0.3
WFMB,20170801T141000,44.39323,73.85883,614.6,49,22.4,21.8,729,948.08,0,1,356,0.0,20.9,19.9,18.6,0.2,0.2,0.3
WFMB,20170801T141500,44.39323,73.85883,614.6,51,22.5,22.2,739,948.08,1,1,328,0.0,20.9,19.9,18.6,0.2,0.2,0.3
WFMB,20170801T142000,44.39323,73.85883,614.6,51,22.3,21.8,751,948.07,1,2,247,0.0,21.1,19.9,18.6,0.2,0.2,0.3
WFMB,20170801T142500,44.39323,73.85883,614.6,49,22.2,21.9,761,948.12,1,2,280,0.0,21.1,19.9,18.6,0.2,0.2,0.3
WFMB,20170801T143000,44.39323,73.85883,614.6,50,22.1,21.8,772,948.18,1,2,233,0.0,21.3,19.9,18.6,0.2,0.2,0.3
WFMB,20170801T143500,44.39323,73.85883,614.6,50,22.3,22.1,785,948.22,1,2,321,0.0,21.3,19.9,18.6,0.2,0.2,0.3
WFMB,20170801T144000,44.39323,73.85883,614.6,49,22.3,22.0,797,948.23,1,5,339,0.0,21.5,19.8,18.6,0.2,0.2,0.3
WFMB,20170801T144500,44.39323,73.85883,614.6,50,23.0,22.4,806,948.25,1,3,306,0.0,21.5,19.8,18.6,0.2,0.2,0.3
WFMB,20170801T145000,44.39323,73.85883,614.6,49,22.4,22.1,814,948.27,1,4,199,0.0,21.7,19.7,18.6,0.2,0.2,0.3
WFMB,20170801T145500,44.39323,73.85883,614.6,51,22.6,22.2,823,948.27,1,3,337,0.0,21.7,19.7,18.6,0.2,0.2,0.3
WFMB,20170801T150000,44.39323,73.85883,614.6,48,22.8,22.1,832,948.35,1,3,6,0.0,21.9,19.7,18.6,0.2,0.2,0.3
WFMB,20170801T150500,44.39323,73.85883,614.6,49,22.9,22.3,842,948.38,1,2,243,0.0,21.9,19.7,18.6,0.2,0.2,0.3
WFMB,20170801T151000,44.39323,73.85883,614.6,49,22.7,22.3,849,948.43,1,3,335,0.0,22.0,19.7,18.6,0.2,0.2,0.3
WFMB,20170801T151500,44.39323,73.85883,614.6,51,22.8,22.3,856,948.43,1,4,134,0.0,22.1,19.7,18.6,0.2,0.2,0.3
WFMB,20170801T152000,44.39323,73.85883,614.6,49,22.7,22.3,864,948.39,1,3,279,0.0,22.2,19.7,18.6,0.2,0.2,0.3
WFMB,20170801T152500,44.39323,73.85883,614.6,50,22.9,22.3,872,948.33,1,4,345,0.0,22.4,19.7,18.6,0.2,0.2,0.3
WFMB,20170801T153000,44.39323,73.85883,614.6,49,23.1,22.3,880,948.37,1,3,252,0.0,22.4,19.7,18.6,0.2,0.2,0.3
WFMB,20170801T153500,44.39323,73.85883,614.6,50,22.7,22.2,885,948.38,1,2,314,0.0,22.6,19.7,18.6,0.2,0.2,0.3
WFMB,20170801T154000,44.39323,73.85883,614.6,51,23.0,22.7,890,948.42,1,4,313,0.0,22.6,19.7,18.6,0.2,0.2,0.3
WFMB,20170801T154500,44.39323,73.85883,614.6,50,22.9,22.2,897,948.39,1,3,344,0.0,22.8,19.7,18.6,0.2,0.2,0.3
WFMB,20170801T155000,44.39323,73.85883,614.6,52,23.0,22.5,899,948.34,1,2,319,0.0,22.8,19.7,18.6,0.2,0.2,0.3
WFMB,20170801T155500,44.39323,73.85883,614.6,51,23.1,22.5,906,948.38,1,3,59,0.0,22.9,19.7,18.6,0.2,0.2,0.3
WFMB,20170801T160000,44.39323,73.85883,614.6,52,23.0,22.4,909,948.39,1,4,321,0.0,23.0,19.7,18.6,0.2,0.2,0.3
WFMB,20170801T160500,44.39323,73.85883,614.6,52,22.9,22.3,916,948.33,1,3,44,0.0,23.0,19.7,18.6,0.2,0.2,0.3
WFMB,20170801T161000,44.39323,73.85883,614.6,52,22.6,22.1,920,948.32,1,2,165,0.0,23.3,19.7,18.6,0.2,0.2,0.3
WFMB,20170801T161500,44.39323,73.85883,614.6,51,23.0,22.3,925,948.3,2,3,190,0.0,23.3,19.7,18.6,0.2,0.2,0.3
WFMB,20170801T162000,44.39323,73.85883,614.6,53,23.1,22.5,927,948.29,1,3,259,0.0,23.4,19.7,18.6,0.2,0.2,0.3
WFMB,20170801T162500,44.39323,73.85883,614.6,52,23.0,22.4,936,948.23,1,3,195,0.0,23.5,19.7,18.6,0.2,0.2,0.3
WFMB,20170801T163000,44.39323,73.85883,614.6,52,23.0,22.5,937,948.21,1,3,245,0.0,23.7,19.7,18.6,0.2,0.2,0.3
WFMB,20170801T163500,44.39323,73.85883,614.6,52,23.1,22.7,943,948.22,1,3,1,0.0,23.7,19.7,18.6,0.2,0.2,0.3
WFMB,20170801T164000,44.39323,73.85883,614.6,52,23.4,22.9,951,948.16,2,4,350,0.0,23.7,19.7,18.6,0.2,0.2,0.3
WFMB,20170801T164500,44.39323,73.85883,614.6,52,24.1,23.4,948,948.18,1,3,302,0.0,23.8,19.7,18.6,0.2,0.2,0.3
WFMB,20170801T165000,44.39323,73.85883,614.6,48,22.9,22.4,953,948.13,1,3,359,0.0,23.9,19.7,18.6,0.2,0.2,0.3
WFMB,20170801T165500,44.39323,73.85883,614.6,50,23.6,23.0,950,948.09,1,3,236,0.0,23.9,19.7,18.6,0.2,0.2,0.3
WFMB,20170801T170000,44.39323,73.85883,614.6,50,24.0,23.3,948,948.06,1,4,318,0.0,24.2,19.7,18.6,0.2,0.2,0.3
WFMB,20170801T170500,44.39323,73.85883,614.6,49,23.7,23.3,950,948.1,1,4,337,0.0,24.2,19.7,18.6,0.2,0.2,0.3
WFMB,20170801T171000,44.39323,73.85883,614.6,50,23.6,23.0,952,948.14,1,3,352,0.0,24.2,19.8,18.6,0.2,0.2,0.3
WFMB,20170801T171500,44.39323,73.85883,614.6,49,23.8,23.4,958,948.1,1,3,306,0.0,24.4,19.8,18.6,0.2,0.2,0.3
WFMB,20170801T172000,44.39323,73.85883,614.6,49,24.0,23.1,951,948.02,1,2,44,0.0,24.4,19.9,18.6,0.2,0.2,0.3
WFMB,20170801T172500,44.39323,73.85883,614.6,48,23.7,23.2,941,947.98,1,3,346,0.0,24.5,19.9,18.6,0.2,0.2,0.3
WFMB,20170801T173000,44.39323,73.85883,614.6,49,23.9,23.1,944,947.95,1,3,353,0.0,24.7,19.9,18.6,0.2,0.2,0.3
WFMB,20170801T173500,44.39323,73.85883,614.6,48,23.7,23.2,942,947.95,0,2,339,0.0,24.7,19.9,18.6,0.2,0.2,0.3
WFMB,20170801T174000,44.39323,73.85883,614.6,50,24.2,23.6,933,947.91,1,2,34,0.0,24.7,19.9,18.6,0.2,0.2,0.3
WFMB,20170801T174500,44.39323,73.85883,614.6,50,24.2,23.9,921,947.9,1,3,349,0.0,24.8,19.9,18.6,0.2,0.2,0.3
WFMB,20170801T175000,44.39323,73.85883,614.6,49,24.2,23.6,922,947.86,2,6,348,0.0,24.9,19.9,18.6,0.2,0.2,0.3
WFMB,20170801T175500,44.39323,73.85883,614.6,48,24.3,23.6,923,947.89,1,3,335,0.0,24.9,19.9,18.6,0.2,0.2,0.3
WFMB,20170801T180000,44.39323,73.85883,614.6,48,23.9,23.2,911,947.87,1,3,358,0.0,25.0,19.9,18.6,0.2,0.2,0.3
WFMB,20170801T180500,44.39323,73.85883,614.6,50,24.3,23.6,907,947.89,1,2,246,0.0,25.1,19.9,18.6,0.2,0.2,0.3